Weather Roundup
Issued by NWS Corpus Christi, TX

Home | Current Version | Previous Version | Text Only | Print | Product List | Glossary On
Versions: 1 2 3 4 5 6 7 8 9 10 11 12 13 14 15 16 17 18 19 20 21 22 23 24 25 26 27 28 29 30 31 32 33 34 35 36 37 38 39 40 41 42 43 44 45 46 47 48 49 50
000
ASUS44 KCRP 250310
HRRCRP

SOUTH TEXAS REGIONAL WEATHER ROUNDUP
NATIONAL WEATHER SERVICE CORPUS CHRISTI TX
1000 PM CDT FRI OCT 24 2014


TXZ229>244-250400-
...CORPUS CHRISTI AREA OBSERVATIONS...

CITY           SKY/WX    TMP DP  RH WIND       PRES   REMARKS
CORPUS CHRISTI CLEAR     68  64  87 SE6       30.12R
NAS CORPUS CHR CLEAR     72  62  71 SE9       30.12R
ROCKPORT       CLEAR     74  63  68 SE9       30.12R
KINGSVILLE NAS CLEAR     67  62  84 S5        30.13R
ALICE          CLEAR     67  60  78 SE6       30.13R
FALFURRIAS     CLEAR     67  59  73 E3        30.13R
$$

...VICTORIA AREA OBSERVATIONS...

CITY           SKY/WX    TMP DP  RH WIND       PRES   REMARKS
VICTORIA       CLEAR     68  59  73 SE5       30.13R
BEEVILLE       FAIR      69  61  75 SE3       30.13R
PLEASANTON     CLEAR     69  59  70 CALM      30.13R
SAN ANTONIO    CLEAR     74  59  59 SE3       30.14R
$$

...LAREDO AREA OBSERVATIONS...

CITY           SKY/WX    TMP DP  RH WIND       PRES   REMARKS
LAREDO         CLEAR     78  60  53 SE12      30.15R
COTULLA        CLEAR     76  58  53 SE6       30.12R
DEL RIO        CLEAR     73  63  70 SE6       30.11R
MCALLEN        CLEAR     73  64  73 E6        30.14R
HEBBRONVILLE   CLEAR     70  59  66 S3        30.15R
$$

...OTHER TEXAS OBSERVATIONS...

CITY           SKY/WX    TMP DP  RH WIND       PRES   REMARKS
BROWNSVILLE    CLEAR     72  66  81 N3        30.13R
HOUSTON        CLEAR     62  58  86 CALM      30.14R
COL. STATION   CLEAR     70  58  65 E5        30.13R
AUSTIN         CLEAR     63  59  87 CALM      30.13R
WACO           CLEAR     70  60  70 S7        30.11R
FORT WORTH     PTCLDY    74  60  61 S9        30.08S
WICHITA FALLS  CLEAR     72  59  63 S12       30.04S
LUBBOCK        CLEAR     64  51  62 S9        30.14R
EL PASO        CLEAR     73  46  38 CALM      30.19R
$$

...MARINE OBSERVATIONS...

STATION/POSITION TIME  SKY/WX   TEMP    WIND        PRES    VSBY  WAVE   SWELL
                                AIR SEA DIR/SP/G                  HT/PER HT/PER
                 (UTC)          (F)     (DEG/KT/KT) (MB)    (MI)  (FT/S) (FT/S)
PORT ARANSAS     0300            77 79  100/ 11/ 12 1020.9R
BUOY 90 E PORT A 0300            75 81   40/ 12/ 14 1020.6R         3/ 7   2/ 7
BUOY 45 SE BAFFI 0300            76 80   60/  8/ 12 1019.8R         3/ 8   3/ 8
BUOY 200 E PT IS 0300            76 81   30/ 14/ 17 1018.8R         4/ 8   3/ 8
BUOY 15 E GALVES 0300            73 77   50/  4/  4 1020.0R         2/ 8   2/ 8
$$



USA.gov is the U.S. government's official web portal to all federal, state and local government web resources and services.